Погода в Добеле

Латвия     56°37′26″N   23°16′51″E
темп.,
°C
ветер,
м/с
пор.,
м/с
влажн.,
%
обл.,
%
осадки,
мм/ч
давл.,
гПа
погр.,
м
19 января, вт
вт1923:00−8ююз389481 0.1 1017261
02:00−9ююз489488 0.2 1017288
05:00−9юз489399 0.1 1016278
08:00−11ююз388593 0.1 1017223
11:00−11ююз378075 0.0 1016247
14:00−9ю378337 0.0 1015306
17:00−12ююв39900 0.0 1015233
20:00−12ююв411890 0.0 1013283
20 января, ср
ср2023:00−13ююв411860 0.0 1012326
02:00−13ююв512860 0.0 1012352
05:00−12ююв5119085 0.1 1009375
08:00−10юв5119492 0.8 1008368
11:00−9ююв61293100 0.7 1006424
14:00−6ююв61194100 1.4 1004523
17:00−5ююв51194100 2.6 1002427
20:00+1ю51395100 3.0 1000462
21 января, чт
чт2123:00+2ююз51398100 0.4 999482
02:00+2юз61497100 0.6 999464
05:00+2юз61498100 0.1 999444
08:00+2юз51298100 0.1 1000395
11:00+1ююз51299100 0.0 1000361
14:00+2ююз51394100 0.0 1001433
17:00+1ююз51190100 0.0 1000346
20:000ююз41091100 0.0 999270
22 января, пт
пт2223:000ю4119294 0.0 999284
02:00−1ю4119372 0.0 998321
05:00−1ю4109356 0.0 997346
08:00−1ю4119377 0.0 997424
11:00+1ю3992100 0.0 996365
14:00+2ююв41291100 0.0 995362
17:00+1ю51390100 0.0 994389
20:00+1ююв51195100 0.0 994358
23 января, сб
сб2323:00+1ююз41098100 0.0 994399
02:00+1юз399597 0.1 996281
05:000юз4119397 0.0 998355
08:00−1ююз4119298 0.0 999363
11:000ююз41090100 0.0 1000421
14:00+1ююз3991100 0.0 1001460
17:00−1ююз3695100 0.0 1002150
20:00−1ююз2596100 0.0 1002106